Location: Chircca
(13.7944°S, 72.0608°W)
Time: 05:59:21
(UTC+00:00)

Delta 2 Rocket - Pass Details

Date: 14 July 2020
Orbit: 890 x 1677 km, 26.4° (Epoch: 14 August)

Event Time Altitude Azimuth Distance (km) Brightness Sun altitude
Exits shadow 10:35:32 11° 247° (WSW) 3,195 6.0 -9.3°
Maximum altitude 10:43:21 85° 334° (NNW) 1,103 4.3 -7.5°
Drops below altitude 10° 10:49:58 10° 63° (ENE) 2,720 8.2 -6.0°
Sets 10:52:25 0° 63° (ENE) 3,599 9.6 -5.4°
